Regional Weather Roundup
Issued by NWS Sterling, VA

Home | Current Version | Previous Version | Text Only | Print | Product List | Glossary Off
Versions: 1 2 3 4 5 6 7 8 9 10 11 12 13 14 15 16 17 18 19 20 21 22 23 24 25 26 27 28 29 30 31 32 33 34 35 36 37 38 39 40 41 42 43 44 45 46 47 48 49 50

000
ASUS41 KLWX 230010
RWRLWX

REGIONAL WEATHER ROUNDUP
NATIONAL WEATHER SERVICE BALTIMORE MD/WASHINGTON DC
800 PM EDT TUE JUL 22 2014

Note: "FAIR" indicates few or no clouds below 12,000 feet
with no significant weather and/or obstructions to visibility.
 TC=TEMPERATURE CELSIUS

 * =Non NWS site. Station does not report precipitation (e.g. rain,
    snow, etc.), thunder, or fog.

DCZ001-MDZ009-015-VAZ040>042-051-053>054-230100-
WASHINGTON METRO
  /KDAA//-FT BELVOIR

CITY           SKY/WX    TMP DP  RH WIND       PRES   REMARKS
WASHINGTON NAT PTCLDY    83  68  60 S10       30.08F
DULLES         PTCLDY    80  69  69 S9        30.08S
ANDREWS AFB    PTCLDY    80  68  68 SE10      30.09S
QUANTICO       PTCLDY    81  70  69 SE13      30.08F
COLLEGE PARK*  PTCLDY    84  68  58 SE3       30.08S
LEESBURG*      CLEAR     82  73  74 S7        30.08S
GAITHERSBURG*  PTCLDY    81  68  65 S7        30.12S

$$

MDZ006>007-011-014-230100-
BALTIMORE METRO

CITY           SKY/WX    TMP DP  RH WIND       PRES   REMARKS
BWI AIRPORT    PTCLDY    80  65  59 SE6       30.07F
MD SCIENCE CTR   N/A     83  65  54 MISG      30.08F
MARTIN STATE   PTCLDY    81  70  69 S7        30.10S
ANNAPOLIS      PTCLDY    80  65  59 S12       30.09S
FORT MEADE*    PTCLDY    77  66  69 SE5       30.10F

$$

MDZ012-015-019>023-230100-
MARYLAND EASTERN SHORE

CITY           SKY/WX    TMP DP  RH WIND       PRES   REMARKS
OCEAN CITY     PTCLDY    74  67  78 VRB5      30.11F
SALISBURY      NOT AVBL
BAY BRIDGE AP*   N/A     81  64  57 S9        30.09S
CAMBRIDGE*     CLEAR     79  59  50 S5        30.10S
EASTON*        PTCLDY    84  68  58 S9        30.13F

$$

MDZ017>025-230100-
SOUTHERN MARYLAND

CITY           SKY/WX    TMP DP  RH WIND       PRES   REMARKS
PATUXENT RIVER PTCLDY    79  66  64 SE8       30.09F
ST INIGOES     CLEAR     79  65  62 SE6       30.09F
LEONARDTOWN*   CLEAR     79  64  61 SE3       30.11F

$$

MDZ003>005-230100-
NORTH CENTRAL MARYLAND

CITY           SKY/WX    TMP DP  RH WIND       PRES   REMARKS
FREDERICK*     CLEAR     82  73  74 S3        30.10S
HAGERSTOWN APT CLEAR     82  69  64 S8        30.07F
WESTMINSTER*   PTCLDY    82  75  78 S6        30.10S

$$

MDZ501>502-230100-
WESTERN MARYLAND

CITY           SKY/WX    TMP DP  RH WIND       PRES   REMARKS
OAKLAND*       PTCLDY    75  70  83 CALM      30.18F
CUMBERLAND*    CLEAR     86  70  58 CALM      30.09S HX  90

$$

VAZ025>031-230100-
SHENANDOAH VALLEY

CITY           SKY/WX    TMP DP  RH WIND       PRES   REMARKS
WINCHESTER*    CLEAR     81  70  69 S7        30.08S
STAUNTON*      CLEAR     81  68  65 S7        30.12F

$$

WVZ021-048>050-054>055-230100-
EASTERN WEST VIRGINIA PANHANDLE

CITY           SKY/WX    TMP DP  RH WIND       PRES   REMARKS
MARTINSBURG    CLEAR     82  69  64 S3        30.08S
PETERSBURG*    MOCLDY    81  63  53 S5        30.07S

$$

VAZ036>039-050-230100-
CENTRAL FOOTHILLS

CITY           SKY/WX    TMP DP  RH WIND       PRES   REMARKS
CHARLOTTESVILL MOCLDY    81  70  69 S5        30.08F
ORANGE*        CLEAR     81  70  69 SE3       30.10S

$$

VAZ055>057-230100-
NORTH AND CENTRAL PIEDMONT

CITY           SKY/WX    TMP DP  RH WIND       PRES   REMARKS
FREDERICKSBRG* CLEAR     83  71  66 SE7       30.07S
STAFFORD*      CLEAR     81  72  73 SE3       30.12S

$$

NCZ024-NYZ072-PAZ021-071-VAZ022-071-230100-
OTHER REGIONAL OBSERVATIONS

CITY           SKY/WX    TMP DP  RH WIND       PRES   REMARKS
NEW YORK CITY  CLEAR     80  66  62 S5        30.09S
PHILADELPHIA   PTCLDY    82  60  47 S9        30.10R
PITTSBURGH     PTCLDY    84  67  56 SW5       30.06R
ROANOKE        PTCLDY    82  66  58 SE7       30.13S
RICHMOND       PTCLDY    82  68  62 E8        30.09S
RALEIGH        MOCLDY    81  70  69 E6        30.09S

$$

ANZ530>537-230100-
MARINE OBSERVATIONS

STATION/POSITION TIME  TEMP    WIND        PRES
                       AIR SEA DIR/SP/G
                 (UTC) (F)     (DEG/KT/KT) (MB)
THOMAS PT LIGHT  0000   80 80  180/ 17/ 18 1019.2S
BALT KEY BRIDGE  0000   82     160/ 12/ 13 1018.2R
COVE POINT       0000   79     190/ 14/ 15 1018.9F
LEWISETTA        0000   80 82  160/  8/  9 1018.8F
SOLOMONS ISLAND  0000      82                N/A
PINEY POINT      0000          170/ 12/ 14   N/A

$$



USA.gov is the U.S. government's official web portal to all federal, state and local government web resources and services.